This is the latest recevied weather packets stored in our database for station/object WR7DW-3. If no packets are shown the sender has not sent any weather packets the latest 10 day(s).
| Time | Temp. | Humidity | Pressure | Rain* | Wind** | Luminosity | Snow |
|---|---|---|---|---|---|---|---|
| 1777900482 | 0° C | 77% | 1003.8 hPa | 0 mm | - | - | - |
| 1777899582 | -0.56° C | 77% | 1003.7 hPa | 0 mm | - | - | - |
| 1777898684 | -0.56° C | 77% | 1003.3 hPa | 0 mm | - | - | - |
| 1777897783 | -0.56° C | 76% | 1003.4 hPa | 0 mm | - | - | - |
| 1777896882 | -0.56° C | 76% | 1003.2 hPa | 0 mm | - | - | - |
| 1777895982 | -0.56° C | 75% | 1003 hPa | 0 mm | - | - | - |
| 1777895083 | 0° C | 74% | 1002.8 hPa | 0 mm | - | - | - |
| 1777894182 | 0° C | 74% | 1002.8 hPa | 0 mm | - | - | - |
| 1777893282 | 0° C | 73% | 1002.8 hPa | 0 mm | - | - | - |
| 1777892382 | 0.56° C | 73% | 1002.7 hPa | 0 mm | - | - | - |
| 1777891482 | 0.56° C | 71% | 1002.7 hPa | 0 mm | - | - | - |
| 1777889682 | 0.56° C | 71% | 1002.5 hPa | 0 mm | - | - | - |
| 1777888782 | 0.56° C | 71% | 1002.4 hPa | 0 mm | - | - | - |
| 1777887882 | 1.11° C | 70% | 1002.4 hPa | 0 mm | - | - | - |
| 1777886982 | 1.11° C | 70% | 1002.4 hPa | 0 mm | - | - | - |
| 1777886082 | 1.67° C | 70% | 1002.4 hPa | 0 mm | - | - | - |
| 1777885182 | 1.67° C | 69% | 1002.5 hPa | 0 mm | - | - | - |
| 1777884282 | 1.67° C | 70% | 1002.2 hPa | 0 mm | - | - | - |
| 1777883382 | 1.67° C | 69% | 1001.8 hPa | 0 mm | - | - | - |
| 1777882483 | 2.22° C | 68% | 1001.7 hPa | 0 mm | - | - | - |
| 1777881583 | 2.78° C | 68% | 1001.9 hPa | 0 mm | - | - | - |
| 1777880683 | 3.33° C | 66% | 1001.8 hPa | 0 mm | - | - | - |
| 1777879783 | 3.89° C | 63% | 1001.6 hPa | 0 mm | - | - | - |
| 1777878883 | 4.44° C | 61% | 1001.3 hPa | 0 mm | - | - | - |
| 1777877983 | 5° C | 59% | 1001.3 hPa | 0 mm | - | - | - |
* Rain latest hour (hover to see other rain measurements)
** Current wind speed in m/s (hover to see current wind gust speed)